QPF
0.02 0.02 0.02 0.01 0.01 0.01 0.00 0.01 0.01 0.01 0.01 0.02 0.02 0.03 0.04 0.05 0.06 0.06 0.06 0.06 0.07 0.08 0.10 0.11 0.09 0.07 0.07 0.06 0.05 0.05 0.07 0.09 0.08 0.07 0.07 0.06 0.04 0.03 0.02 0.02 0.02 0.03 0.04
0.02 0.02 0.03 0.02 0.01 0.00 0.00 0.00 0.00 0.01 0.01 0.01 0.02 0.03 0.04 0.05 0.06 0.08 0.07 0.06 0.07 0.07 0.08 0.09 0.10 0.09 0.08 0.08 0.07 0.06 0.05 0.06 0.08 0.08 0.08 0.09 0.07 0.05 0.04 0.03 0.02 0.02 0.03
0.02 0.02 0.02 0.03 0.02 0.01 0.00 0.00 0.00 0.01 0.01 0.01 0.01 0.02 0.04 0.05 0.06 0.07 0.07 0.07 0.06 0.06 0.06 0.07 0.07 0.08 0.08 0.08 0.08 0.07 0.05 0.04 0.05 0.05 0.06 0.07 0.07 0.05 0.04 0.05 0.05 0.04 0.03
0.02 0.02 0.02 0.03 0.03 0.02 0.01 0.00 0.00 0.00 0.01 0.01 0.01 0.02 0.03 0.05 0.06 0.06 0.06 0.06 0.06 0.06 0.06 0.06 0.07 0.07 0.07 0.07 0.07 0.06 0.05 0.04 0.04 0.05 0.06 0.06 0.06 0.05 0.04 0.05 0.05 0.06 0.05
0.03 0.03 0.02 0.02 0.02 0.02 0.02 0.01 0.01 0.01 0.00 0.01 0.01 0.01 0.02 0.04 0.05 0.06 0.06 0.06 0.05 0.05 0.05 0.05 0.06 0.07 0.07 0.08 0.08 0.07 0.06 0.05 0.05 0.06 0.07 0.07 0.07 0.06 0.05 0.04 0.04 0.04 0.05
0.02 0.03 0.03 0.02 0.02 0.02 0.02 0.02 0.01 0.01 0.01 0.01 0.01 0.01 0.02 0.03 0.04 0.05 0.06 0.06 0.05 0.05 0.06 0.06 0.06 0.06 0.07 0.08 0.08 0.08 0.08 0.06 0.05 0.06 0.06 0.06 0.06 0.06 0.04 0.03 0.03 0.03 0.03
0.01 0.01 0.02 0.02 0.01 0.01 0.01 0.01 0.01 0.01 0.01 0.01 0.01 0.02 0.02 0.03 0.03 0.04 0.05 0.05 0.05 0.05 0.06 0.07 0.07 0.06 0.06 0.06 0.06 0.06 0.07 0.07 0.07 0.07 0.07 0.06 0.05 0.05 0.06 0.04 0.03 0.03 0.02
0.01 0.01 0.01 0.01 0.01 0.01 0.01 0.01 0.01 0.01 0.01 0.01 0.01 0.02 0.02 0.03 0.03 0.03 0.03 0.04 0.04 0.04 0.04 0.05 0.06 0.06 0.06 0.06 0.06 0.06 0.06 0.06 0.05 0.05 0.05 0.05 0.05 0.06 0.06 0.06 0.04 0.04 0.03
0.01 0.02 0.01 0.01 0.01 0.01 0.01 0.01 0.01 0.01 0.01 0.01 0.02 0.02 0.02 0.02 0.03 0.03 0.03 0.03 0.03 0.03 0.04 0.04 0.05 0.05 0.06 0.06 0.06 0.07 0.06 0.06 0.06 0.07 0.06 0.06 0.07 0.07 0.07 0.08 0.07 0.07 0.06
0.02 0.02 0.02 0.01 0.01 0.01 0.01 0.01 0.01 0.01 0.02 0.02 0.02 0.02 0.02 0.02 0.02 0.04 0.03 0.03 0.03 0.02 0.02 0.02 0.03 0.03 0.04 0.05 0.06 0.05 0.06 0.06 0.05 0.06 0.07 0.07 0.06 0.07 0.07 0.06 0.06 0.06 0.06
0.02 0.02 0.02 0.01 0.01 0.01 0.01 0.01 0.01 0.01 0.01 0.01 0.02 0.02 0.02 0.02 0.02 0.03 0.03 0.03 0.04 0.03 0.02 0.02 0.02 0.02 0.03 0.04 0.05 0.05 0.05 0.06 0.06 0.07 0.07 0.08 0.07 0.08 0.08 0.07 0.06 0.05 0.05
0.01 0.01 0.01 0.01 0.01 0.01 0.01 0.01 0.01 0.01 0.01 0.01 0.02 0.02 0.02 0.03 0.03 0.03 0.03 0.03 0.03 0.03 0.02 0.01 0.01 0.02 0.03 0.03 0.04 0.04 0.05 0.06 0.07 0.07 0.08 0.08 0.08 0.07 0.07 0.06 0.05 0.05 0.04
0.01 0.01 0.01 0.01 0.01 0.01 0.01 0.01 0.01 0.01 0.01 0.01 0.01 0.02 0.02 0.02 0.02 0.02 0.02 0.02 0.02 0.02 0.01 0.01 0.02 0.02 0.02 0.02 0.03 0.04 0.04 0.05 0.06 0.06 0.06 0.06 0.07 0.06 0.05 0.06 0.06 0.05 0.05
0.01 0.01 0.01 0.01 0.01 0.01 0.01 0.01 0.01 0.01 0.01 0.01 0.02 0.02 0.02 0.02 0.02 0.03 0.03 0.03 0.03 0.03 0.02 0.02 0.02 0.02 0.01 0.01 0.02 0.03 0.04 0.05 0.05 0.06 0.05 0.05 0.06 0.06 0.06 0.06 0.06 0.05 0.06
0.00 0.00 0.00 0.00 0.01 0.01 0.01 0.01 0.01 0.02 0.03 0.03 0.03 0.03 0.03 0.03 0.03 0.04 0.04 0.04 0.04 0.03 0.03 0.03 0.02 0.01 0.01 0.01 0.01 0.02 0.03 0.05 0.05 0.05 0.05 0.05 0.06 0.06 0.06 0.05 0.05 0.05 0.05
0.00 0.00 0.00 0.01 0.01 0.01 0.01 0.01 0.01 0.01 0.02 0.02 0.02 0.03 0.03 0.04 0.04 0.04 0.03 0.03 0.03 0.03 0.02 0.02 0.02 0.01 0.01 0.01 0.02 0.02 0.02 0.04 0.04 0.05 0.05 0.06 0.06 0.06 0.05 0.05 0.04 0.05 0.04
0.01 0.01 0.01 0.01 0.01 0.01 0.01 0.01 0.01 0.01 0.01 0.02 0.02 0.03 0.03 0.03 0.04 0.04 0.04 0.03 0.03 0.03 0.02 0.01 0.01 0.01 0.01 0.02 0.02 0.02 0.02 0.03 0.04 0.05 0.05 0.05 0.06 0.05 0.05 0.04 0.04 0.04 0.04
0.01 0.01 0.01 0.01 0.01 0.01 0.02 0.02 0.02 0.01 0.01 0.02 0.02 0.02 0.03 0.03 0.04 0.05 0.04 0.04 0.04 0.03 0.02 0.02 0.02 0.02 0.02 0.02 0.02 0.02 0.02 0.02 0.03 0.04 0.05 0.05 0.05 0.05 0.04 0.03 0.03 0.03 0.04
0.01 0.01 0.01 0.01 0.01 0.01 0.02 0.02 0.02 0.02 0.02 0.02 0.02 0.03 0.03 0.03 0.03 0.04 0.04 0.03 0.03 0.03 0.03 0.02 0.02 0.02 0.02 0.02 0.03 0.03 0.03 0.03 0.04 0.04 0.04 0.05 0.05 0.04 0.04 0.03 0.03 0.03 0.03
0.00 0.01 0.01 0.01 0.01 0.01 0.01 0.02 0.02 0.02 0.02 0.02 0.03 0.03 0.03 0.03 0.03 0.03 0.04 0.03 0.03 0.03 0.03 0.03 0.03 0.03 0.03 0.03 0.04 0.04 0.03 0.03 0.04 0.04 0.04 0.04 0.04 0.04 0.04 0.04 0.03 0.03 0.03
0.01 0.00 0.01 0.01 0.01 0.01 0.01 0.02 0.02 0.02 0.02 0.02 0.03 0.04 0.04 0.04 0.04 0.04 0.04 0.04 0.04 0.04 0.04 0.04 0.04 0.04 0.04 0.04 0.04 0.04 0.04 0.03 0.03 0.03 0.03 0.03 0.04 0.03 0.04 0.03 0.03 0.03 0.03
0.01 0.01 0.01 0.01 0.01 0.01 0.01 0.01 0.01 0.01 0.01 0.02 0.02 0.03 0.03 0.03 0.03 0.03 0.04 0.04 0.04 0.04 0.04 0.04 0.04 0.04 0.04 0.04 0.04 0.04 0.03 0.03 0.02 0.03 0.03 0.03 0.03 0.03 0.03 0.03 0.03 0.03 0.03
0.01 0.01 0.01 0.01 0.01 0.01 0.01 0.01 0.01 0.01 0.01 0.01 0.01 0.01 0.01 0.02 0.02 0.02 0.03 0.03 0.03 0.03 0.03 0.03 0.03 0.03 0.03 0.04 0.04 0.04 0.04 0.03 0.03 0.02 0.02 0.02 0.03 0.03 0.03 0.04 0.03 0.03 0.03
0.01 0.01 0.01 0.01 0.01 0.01 0.01 0.01 0.01 0.01 0.01 0.01 0.01 0.01 0.01 0.01 0.02 0.02 0.02 0.02 0.02 0.03 0.03 0.03 0.03 0.03 0.03 0.03 0.04 0.03 0.03 0.03 0.03 0.03 0.02 0.02 0.03 0.03 0.03 0.04 0.04 0.04 0.03
0.01 0.01 0.01 0.01 0.01 0.01 0.01 0.01 0.01 0.01 0.01 0.01 0.01 0.01 0.01 0.01 0.01 0.01 0.02 0.02 0.02 0.02 0.02 0.03 0.03 0.03 0.03 0.03 0.04 0.04 0.04 0.04 0.04 0.04 0.03 0.03 0.03 0.03 0.04 0.04 0.04 0.04 0.04
0.01 0.01 0.01 0.01 0.01 0.01 0.01 0.01 0.01 0.01 0.01 0.01 0.01 0.01 0.01 0.01 0.01 0.01 0.01 0.02 0.02 0.02 0.02 0.02 0.02 0.03 0.03 0.03 0.04 0.04 0.04 0.04 0.04 0.04 0.05 0.05 0.04 0.04 0.04 0.05 0.04 0.04 0.04
MSLP
1034.68 1034.97 1035.20 1035.35 1035.42 1035.42 1035.37 1035.31 1035.26 1035.24 1035.25 1035.28 1035.29 1035.25 1035.15 1034.96 1034.69 1034.36 1034.00 1033.65 1033.35 1033.12 1032.96 1032.86 1032.78 1032.70 1032.57 1032.36 1032.05 1031.65 1031.18 1030.66 1030.14 1029.65 1029.21 1028.83 1028.49 1028.17 1027.84 1027.48 1027.07 1026.59 1026.07
1034.31 1034.64 1034.90 1035.07 1035.16 1035.18 1035.15 1035.11 1035.08 1035.08 1035.09 1035.12 1035.12 1035.06 1034.93 1034.71 1034.40 1034.03 1033.63 1033.23 1032.88 1032.60 1032.40 1032.26 1032.16 1032.07 1031.95 1031.76 1031.50 1031.16 1030.76 1030.32 1029.87 1029.45 1029.05 1028.70 1028.37 1028.05 1027.71 1027.34 1026.91 1026.44 1025.93
1033.94 1034.30 1034.59 1034.78 1034.88 1034.91 1034.89 1034.85 1034.82 1034.81 1034.82 1034.83 1034.80 1034.72 1034.56 1034.31 1033.98 1033.58 1033.14 1032.72 1032.34 1032.02 1031.78 1031.61 1031.49 1031.39 1031.27 1031.10 1030.88 1030.59 1030.26 1029.89 1029.51 1029.14 1028.80 1028.47 1028.15 1027.83 1027.48 1027.09 1026.66 1026.18 1025.69
1033.59 1033.98 1034.28 1034.48 1034.58 1034.60 1034.58 1034.53 1034.48 1034.45 1034.43 1034.40 1034.34 1034.23 1034.04 1033.77 1033.41 1033.00 1032.56 1032.13 1031.74 1031.41 1031.15 1030.96 1030.82 1030.70 1030.57 1030.42 1030.22 1029.97 1029.68 1029.37 1029.05 1028.73 1028.42 1028.12 1027.81 1027.48 1027.13 1026.73 1026.29 1025.82 1025.33
1033.28 1033.68 1033.99 1034.18 1034.27 1034.28 1034.23 1034.15 1034.07 1034.00 1033.93 1033.86 1033.76 1033.61 1033.39 1033.11 1032.75 1032.34 1031.91 1031.49 1031.10 1030.78 1030.52 1030.31 1030.16 1030.02 1029.88 1029.72 1029.53 1029.30 1029.03 1028.75 1028.47 1028.18 1027.90 1027.61 1027.31 1026.99 1026.64 1026.24 1025.81 1025.34 1024.87
1033.04 1033.44 1033.73 1033.90 1033.96 1033.93 1033.85 1033.74 1033.61 1033.49 1033.38 1033.25 1033.11 1032.92 1032.67 1032.37 1032.01 1031.62 1031.20 1030.81 1030.44 1030.13 1029.88 1029.67 1029.50 1029.34 1029.18 1029.00 1028.79 1028.55 1028.30 1028.03 1027.76 1027.49 1027.22 1026.95 1026.66 1026.35 1026.01 1025.63 1025.21 1024.77 1024.32
1032.89 1033.26 1033.51 1033.64 1033.66 1033.59 1033.47 1033.31 1033.14 1032.97 1032.80 1032.62 1032.43 1032.19 1031.92 1031.60 1031.24 1030.85 1030.47 1030.09 1029.75 1029.45 1029.20 1028.99 1028.79 1028.61 1028.42 1028.21 1027.98 1027.72 1027.45 1027.18 1026.91 1026.65 1026.39 1026.14 1025.87 1025.58 1025.26 1024.90 1024.51 1024.10 1023.68
1032.83 1033.15 1033.34 1033.42 1033.39 1033.27 1033.10 1032.90 1032.68 1032.46 1032.24 1032.01 1031.76 1031.48 1031.17 1030.83 1030.46 1030.07 1029.69 1029.33 1029.00 1028.71 1028.46 1028.23 1028.02 1027.80 1027.58 1027.33 1027.07 1026.79 1026.50 1026.22 1025.94 1025.69 1025.44 1025.20 1024.96 1024.70 1024.41 1024.09 1023.74 1023.36 1022.98
1032.86 1033.10 1033.23 1033.23 1033.14 1032.98 1032.76 1032.51 1032.25 1031.98 1031.71 1031.43 1031.12 1030.79 1030.44 1030.06 1029.67 1029.27 1028.88 1028.51 1028.19 1027.89 1027.63 1027.38 1027.15 1026.91 1026.65 1026.37 1026.08 1025.78 1025.47 1025.19 1024.91 1024.66 1024.43 1024.22 1024.00 1023.77 1023.52 1023.24 1022.93 1022.59 1022.23
1032.96 1033.11 1033.14 1033.07 1032.92 1032.70 1032.43 1032.14 1031.84 1031.52 1031.20 1030.87 1030.51 1030.13 1029.72 1029.30 1028.87 1028.44 1028.03 1027.65 1027.31 1027.00 1026.72 1026.46 1026.21 1025.94 1025.67 1025.37 1025.07 1024.75 1024.44 1024.15 1023.89 1023.65 1023.44 1023.24 1023.05 1022.85 1022.63 1022.39 1022.11 1021.80 1021.47
1033.08 1033.13 1033.07 1032.92 1032.69 1032.42 1032.10 1031.77 1031.43 1031.07 1030.70 1030.32 1029.91 1029.47 1029.01 1028.54 1028.06 1027.60 1027.16 1026.76 1026.40 1026.08 1025.79 1025.52 1025.26 1024.99 1024.71 1024.41 1024.10 1023.79 1023.49 1023.21 1022.95 1022.73 1022.53 1022.35 1022.17 1021.99 1021.79 1021.56 1021.30 1021.02 1020.70
1033.18 1033.12 1032.97 1032.74 1032.45 1032.12 1031.76 1031.38 1031.00 1030.60 1030.19 1029.75 1029.29 1028.80 1028.29 1027.77 1027.26 1026.76 1026.30 1025.88 1025.51 1025.19 1024.90 1024.63 1024.37 1024.11 1023.84 1023.56 1023.27 1022.98 1022.69 1022.42 1022.18 1021.95 1021.76 1021.58 1021.40 1021.21 1021.01 1020.78 1020.52 1020.23 1019.92
1033.23 1033.07 1032.83 1032.52 1032.17 1031.78 1031.38 1030.97 1030.55 1030.11 1029.66 1029.18 1028.67 1028.13 1027.58 1027.02 1026.47 1025.96 1025.48 1025.06 1024.69 1024.38 1024.11 1023.86 1023.63 1023.39 1023.15 1022.90 1022.63 1022.36 1022.09 1021.83 1021.58 1021.36 1021.15 1020.94 1020.74 1020.53 1020.30 1020.04 1019.76 1019.45 1019.12
1033.19 1032.95 1032.63 1032.25 1031.84 1031.41 1030.97 1030.53 1030.07 1029.60 1029.11 1028.59 1028.05 1027.47 1026.89 1026.31 1025.74 1025.22 1024.75 1024.34 1023.99 1023.71 1023.47 1023.26 1023.06 1022.87 1022.66 1022.44 1022.19 1021.94 1021.68 1021.42 1021.16 1020.91 1020.67 1020.42 1020.17 1019.91 1019.63 1019.33 1019.01 1018.67 1018.31
1033.05 1032.74 1032.36 1031.94 1031.49 1031.03 1030.56 1030.09 1029.61 1029.11 1028.59 1028.04 1027.46 1026.86 1026.26 1025.66 1025.10 1024.58 1024.13 1023.75 1023.44 1023.19 1023.00 1022.83 1022.68 1022.52 1022.35 1022.15 1021.93 1021.68 1021.41 1021.13 1020.85 1020.56 1020.26 1019.97 1019.66 1019.33 1018.99 1018.63 1018.26 1017.87 1017.48
1032.82 1032.45 1032.04 1031.59 1031.12 1030.64 1030.17 1029.68 1029.19 1028.67 1028.13 1027.55 1026.95 1026.33 1025.72 1025.12 1024.56 1024.07 1023.64 1023.30 1023.03 1022.83 1022.67 1022.55 1022.43 1022.30 1022.15 1021.96 1021.73 1021.47 1021.19 1020.88 1020.55 1020.21 1019.87 1019.51 1019.13 1018.75 1018.35 1017.93 1017.51 1017.08 1016.66
1032.51 1032.12 1031.69 1031.23 1030.77 1030.30 1029.82 1029.34 1028.84 1028.31 1027.75 1027.16 1026.54 1025.91 1025.29 1024.70 1024.16 1023.68 1023.28 1022.97 1022.73 1022.56 1022.43 1022.33 1022.23 1022.11 1021.95 1021.75 1021.51 1021.23 1020.91 1020.56 1020.19 1019.80 1019.40 1018.99 1018.56 1018.13 1017.69 1017.23 1016.77 1016.32 1015.87
1032.16 1031.76 1031.34 1030.90 1030.45 1030.01 1029.55 1029.08 1028.58 1028.05 1027.48 1026.88 1026.25 1025.61 1024.99 1024.39 1023.86 1023.39 1023.01 1022.71 1022.49 1022.33 1022.21 1022.11 1021.99 1021.85 1021.67 1021.45 1021.17 1020.84 1020.48 1020.09 1019.68 1019.25 1018.82 1018.38 1017.93 1017.47 1017.01 1016.54 1016.07 1015.60 1015.14
1031.79 1031.40 1031.00 1030.60 1030.19 1029.77 1029.34 1028.89 1028.40 1027.87 1027.30 1026.69 1026.05 1025.40 1024.77 1024.17 1023.63 1023.17 1022.79 1022.49 1022.26 1022.08 1021.94 1021.81 1021.66 1021.48 1021.25 1020.97 1020.64 1020.27 1019.87 1019.44 1018.99 1018.55 1018.10 1017.66 1017.22 1016.77 1016.32 1015.87 1015.41 1014.95 1014.49
1031.42 1031.06 1030.70 1030.33 1029.97 1029.59 1029.19 1028.75 1028.28 1027.75 1027.17 1026.55 1025.90 1025.24 1024.60 1023.99 1023.44 1022.97 1022.57 1022.24 1021.99 1021.77 1021.58 1021.39 1021.18 1020.94 1020.65 1020.31 1019.92 1019.50 1019.05 1018.60 1018.14 1017.70 1017.26 1016.84 1016.43 1016.03 1015.62 1015.20 1014.78 1014.34 1013.90
1031.08 1030.76 1030.43 1030.11 1029.78 1029.43 1029.05 1028.63 1028.16 1027.63 1027.04 1026.41 1025.75 1025.08 1024.43 1023.81 1023.24 1022.74 1022.31 1021.95 1021.64 1021.37 1021.12 1020.85 1020.57 1020.25 1019.88 1019.47 1019.02 1018.55 1018.07 1017.60 1017.14 1016.71 1016.31 1015.93 1015.57 1015.22 1014.87 1014.51 1014.14 1013.74 1013.32
1030.79 1030.50 1030.20 1029.91 1029.60 1029.26 1028.89 1028.47 1028.00 1027.46 1026.87 1026.23 1025.56 1024.88 1024.21 1023.57 1022.99 1022.46 1021.99 1021.58 1021.22 1020.88 1020.55 1020.20 1019.83 1019.43 1018.98 1018.50 1017.99 1017.48 1016.97 1016.48 1016.03 1015.61 1015.24 1014.91 1014.61 1014.32 1014.03 1013.74 1013.41 1013.06 1012.66
1030.56 1030.28 1030.00 1029.71 1029.41 1029.07 1028.69 1028.25 1027.76 1027.20 1026.60 1025.95 1025.27 1024.58 1023.91 1023.26 1022.66 1022.10 1021.60 1021.14 1020.71 1020.30 1019.89 1019.46 1019.00 1018.51 1017.98 1017.43 1016.87 1016.30 1015.76 1015.26 1014.80 1014.40 1014.05 1013.76 1013.50 1013.27 1013.03 1012.79 1012.51 1012.19 1011.83
1030.39 1030.11 1029.83 1029.53 1029.20 1028.83 1028.42 1027.95 1027.43 1026.86 1026.23 1025.57 1024.89 1024.20 1023.52 1022.86 1022.24 1021.67 1021.13 1020.62 1020.13 1019.64 1019.15 1018.64 1018.10 1017.52 1016.92 1016.29 1015.67 1015.06 1014.47 1013.94 1013.47 1013.07 1012.73 1012.45 1012.21 1012.01 1011.81 1011.60 1011.35 1011.07 1010.72
1030.26 1029.97 1029.67 1029.33 1028.97 1028.56 1028.10 1027.59 1027.03 1026.43 1025.79 1025.11 1024.42 1023.73 1023.05 1022.39 1021.75 1021.15 1020.57 1020.01 1019.47 1018.91 1018.34 1017.75 1017.12 1016.47 1015.79 1015.09 1014.40 1013.73 1013.11 1012.53 1012.03 1011.60 1011.24 1010.95 1010.71 1010.51 1010.32 1010.12 1009.91 1009.64 1009.32
1030.16 1029.85 1029.51 1029.13 1028.71 1028.25 1027.74 1027.18 1026.59 1025.95 1025.28 1024.60 1023.90 1023.20 1022.51 1021.84 1021.19 1020.55 1019.94 1019.33 1018.71 1018.09 1017.44 1016.77 1016.07 1015.33 1014.58 1013.81 1013.06 1012.33 1011.64 1011.02 1010.47 1009.99 1009.59 1009.27 1009.00 1008.78 1008.59 1008.39 1008.18 1007.93 1007.63
Thickness
5385 5382 5380 5379 5377 5376 5375 5375 5375 5375 5376 5377 5379 5381 5384 5386 5390 5393 5396 5399 5403 5407 5410 5414 5418 5421 5424 5427 5431 5436 5441 5445 5451 5457 5460 5464 5468 5472 5475 5478 5482 5487 5491
5373 5371 5369 5367 5366 5364 5363 5363 5362 5363 5363 5364 5366 5368 5371 5373 5376 5380 5384 5388 5391 5395 5398 5402 5406 5410 5413 5416 5420 5424 5429 5434 5438 5443 5447 5450 5455 5459 5462 5465 5469 5473 5477
5361 5359 5357 5355 5353 5352 5351 5350 5350 5350 5351 5352 5354 5356 5359 5361 5364 5367 5371 5375 5378 5382 5386 5390 5395 5398 5402 5405 5409 5413 5417 5422 5427 5431 5435 5438 5441 5445 5448 5451 5455 5459 5463
5349 5346 5344 5342 5341 5339 5338 5337 5337 5337 5338 5340 5341 5344 5346 5349 5351 5355 5358 5362 5366 5370 5374 5378 5383 5387 5392 5395 5398 5402 5406 5410 5414 5419 5423 5426 5428 5432 5435 5438 5441 5445 5450
5337 5334 5332 5330 5328 5327 5325 5325 5324 5325 5326 5327 5329 5332 5334 5337 5340 5343 5347 5351 5355 5358 5362 5367 5372 5377 5381 5385 5389 5392 5395 5399 5403 5407 5411 5414 5417 5421 5424 5427 5430 5433 5436
5325 5322 5320 5318 5316 5314 5313 5313 5313 5313 5314 5316 5318 5320 5322 5325 5329 5333 5337 5340 5344 5347 5351 5356 5361 5366 5370 5375 5380 5383 5386 5389 5393 5396 5400 5404 5409 5411 5413 5415 5418 5421 5425
5312 5310 5307 5305 5304 5302 5302 5302 5301 5302 5303 5304 5306 5308 5311 5314 5319 5323 5326 5330 5333 5337 5340 5344 5349 5354 5359 5364 5369 5373 5376 5379 5383 5388 5392 5396 5399 5402 5404 5406 5408 5411 5416
5301 5298 5296 5294 5292 5291 5290 5290 5290 5290 5291 5292 5294 5297 5300 5304 5308 5313 5317 5320 5323 5326 5329 5333 5337 5343 5348 5353 5357 5362 5366 5370 5374 5379 5384 5388 5390 5392 5394 5397 5399 5400 5403
5290 5287 5285 5283 5281 5280 5280 5279 5279 5280 5280 5282 5284 5287 5289 5293 5297 5303 5307 5310 5314 5316 5319 5323 5327 5332 5337 5343 5347 5352 5357 5361 5365 5369 5373 5377 5380 5383 5385 5386 5388 5390 5393
5279 5276 5274 5272 5271 5270 5269 5269 5269 5269 5271 5272 5275 5277 5279 5283 5288 5293 5297 5301 5304 5308 5311 5314 5318 5322 5327 5332 5336 5341 5346 5351 5355 5359 5363 5366 5370 5373 5376 5379 5381 5382 5384
5267 5265 5264 5262 5261 5260 5260 5259 5259 5260 5261 5262 5265 5268 5271 5275 5279 5284 5288 5291 5294 5298 5302 5306 5309 5313 5318 5323 5327 5331 5337 5341 5345 5349 5352 5356 5359 5362 5365 5368 5371 5374 5376
5257 5255 5254 5253 5251 5252 5250 5250 5250 5250 5251 5253 5255 5259 5263 5266 5270 5274 5279 5282 5286 5288 5293 5296 5301 5305 5309 5314 5318 5323 5328 5332 5335 5339 5343 5346 5349 5353 5356 5358 5360 5363 5366
5247 5246 5245 5244 5243 5242 5241 5241 5241 5241 5242 5245 5248 5251 5255 5258 5261 5265 5270 5273 5277 5280 5284 5288 5292 5296 5300 5303 5308 5312 5317 5321 5325 5329 5333 5337 5340 5343 5345 5347 5348 5351 5353
5237 5237 5236 5236 5235 5234 5233 5233 5233 5234 5235 5238 5240 5243 5246 5248 5252 5256 5259 5263 5267 5271 5275 5279 5283 5286 5289 5292 5296 5300 5304 5310 5315 5319 5323 5326 5328 5331 5334 5336 5338 5339 5341
5228 5228 5228 5228 5226 5226 5226 5225 5226 5227 5228 5230 5233 5234 5237 5240 5244 5248 5250 5254 5258 5262 5266 5268 5272 5275 5278 5281 5284 5288 5292 5298 5302 5306 5311 5315 5318 5321 5323 5325 5327 5328 5329
5220 5220 5219 5219 5219 5219 5219 5220 5220 5221 5223 5224 5226 5227 5230 5233 5236 5240 5243 5246 5250 5253 5255 5258 5261 5264 5267 5270 5274 5277 5281 5286 5291 5295 5299 5303 5307 5310 5312 5314 5316 5317 5319
5211 5211 5210 5211 5210 5210 5210 5211 5213 5215 5215 5216 5217 5219 5222 5225 5228 5232 5235 5238 5240 5243 5244 5247 5249 5253 5256 5259 5263 5266 5271 5275 5280 5284 5288 5292 5296 5299 5302 5303 5305 5307 5308
5203 5203 5203 5202 5202 5201 5202 5202 5203 5204 5206 5207 5208 5210 5213 5216 5219 5222 5225 5227 5229 5231 5233 5236 5239 5242 5246 5249 5253 5256 5260 5265 5269 5273 5277 5281 5285 5288 5291 5293 5295 5296 5298
5197 5196 5195 5195 5195 5195 5194 5194 5195 5195 5195 5197 5199 5201 5203 5206 5209 5211 5214 5215 5218 5221 5224 5226 5229 5233 5236 5239 5243 5247 5250 5255 5259 5263 5267 5271 5274 5278 5281 5283 5285 5287 5289
5189 5190 5189 5189 5188 5187 5187 5187 5187 5187 5187 5188 5189 5190 5193 5196 5198 5201 5203 5205 5207 5211 5214 5217 5220 5224 5227 5231 5234 5238 5242 5246 5250 5254 5258 5262 5265 5268 5271 5274 5276 5278 5280
5182 5182 5183 5182 5180 5180 5179 5179 5178 5179 5179 5179 5180 5181 5185 5186 5188 5190 5192 5195 5198 5201 5205 5208 5212 5216 5219 5223 5226 5230 5234 5238 5243 5247 5250 5253 5256 5259 5262 5265 5267 5269 5271
5175 5174 5174 5174 5173 5173 5172 5172 5171 5171 5171 5171 5172 5173 5176 5177 5178 5180 5183 5186 5189 5192 5196 5200 5204 5208 5211 5215 5219 5223 5227 5232 5236 5240 5243 5246 5249 5252 5255 5257 5259 5261 5263
5169 5168 5168 5167 5166 5166 5165 5164 5163 5163 5163 5164 5165 5166 5168 5169 5171 5173 5176 5179 5182 5185 5189 5193 5197 5201 5205 5209 5213 5217 5222 5227 5231 5234 5237 5240 5243 5245 5248 5251 5253 5254 5256
5162 5161 5160 5159 5159 5158 5157 5157 5156 5156 5156 5157 5157 5159 5160 5162 5164 5167 5169 5172 5175 5179 5183 5186 5190 5195 5199 5203 5207 5212 5217 5222 5226 5230 5233 5236 5238 5240 5243 5246 5248 5250 5251
5155 5154 5153 5152 5151 5151 5150 5150 5149 5149 5149 5150 5150 5152 5153 5155 5158 5161 5163 5166 5170 5173 5177 5181 5185 5189 5194 5198 5203 5208 5213 5218 5223 5227 5230 5232 5235 5238 5240 5242 5243 5244 5245
5148 5147 5145 5145 5144 5144 5143 5143 5143 5143 5143 5143 5143 5144 5146 5148 5151 5154 5158 5161 5164 5168 5172 5176 5181 5185 5189 5194 5199 5204 5209 5214 5219 5223 5227 5230 5232 5235 5236 5237 5238 5239 5240